Location: Mentone
(34.5413°N, 85.5351°W)
Time: 08:15:53
(UTC-05:00)

S-56A Canister/Altair - Visible Passes

Search period start: 17 October 2017 00:00
Search period end: 27 October 2017 00:00
Orbit: 636 x 2498 km, 38.9° (Epoch: 16 October)

Date Brightness Start Highest point End Pass type
(mag) Time Alt. Az. Time Alt. Az. Time Alt. Az.
17 Oct 7.7 19:25:10 10° WNW 19:29:52 62° NNE 19:32:27 32° E visible
17 Oct 10.0 21:28:26 10° WNW 21:29:53 20° W 21:29:53 20° W visible
18 Oct 7.7 18:52:56 10° WNW 18:57:27 57° N 19:01:40 17° E visible
18 Oct 9.1 20:56:13 10° WNW 20:59:06 35° W 20:59:06 35° W visible
19 Oct 7.7 18:20:40 10° WNW 18:25:03 53° N 18:30:20 10° E visible
19 Oct 8.0 20:24:01 10° WNW 20:28:22 63° WSW 20:28:22 63° WSW visible
20 Oct 7.6 19:51:48 10° WNW 19:56:35 77° SSW 19:57:41 57° SE visible
21 Oct 7.4 19:19:35 10° WNW 19:24:11 86° SSW 19:27:02 30° ESE visible
21 Oct 10.2 21:23:31 10° W 21:24:30 15° WSW 21:24:30 15° WSW visible
22 Oct 7.3 18:47:20 10° WNW 18:51:50 85° NNE 18:56:29 14° ESE visible
22 Oct 9.5 20:51:10 10° W 20:53:56 24° WSW 20:53:56 24° WSW visible
23 Oct 7.3 18:15:03 10° WNW 18:19:28 76° NNE 18:24:38 10° ESE visible
23 Oct 8.9 20:18:49 10° W 20:23:08 31° SSW 20:23:27 31° SSW visible
24 Oct 8.7 19:46:29 10° W 19:50:44 35° SSW 19:53:04 25° SSE visible
25 Oct 8.4 19:14:09 10° W 19:18:22 40° SSW 19:22:46 13° SE visible
26 Oct 8.2 18:41:47 10° W 18:46:03 46° SSW 18:50:59 10° SE visible
